This demonstration page uses our WeatherBlox Daily Observations layout. Learn more.

Left ArrowRight Arrow

41.86663, -103.66717

Hourly Observations for February 4, 2016

Temp ( °F °C ) Dew Point ( °F °C ) Humidity (%) Winds ( mph kmh ) Pressure ( in mb ) Visibility ( mi km ) Precip ( " mm )
12:53 am 00:53 Clear 11 -11.7 4 -15.6 73 73 NNW 9 15 30.30 1026 10 16 N/A
1:53 am 01:53 Mostly Clear 12 -11.1 5 -15 73 73 NNW 9 15 30.27 1025 10 16 N/A
2:53 am 02:53 Mostly Clear 14 -10 6 -14.4 71 71 NW 8 13 30.26 1025 10 16 N/A
3:53 am 03:53 Clear 7 -13.9 1 -17.2 76 76 N 6 9 30.28 1026 10 16 N/A
4:53 am 04:53 Clear 13 -10.6 5 -15 70 70 NNW 6 9 30.29 1026 10 16 N/A
5:53 am 05:53 Clear 14 -10 5 -15 67 67 NW 6 9 30.30 1026 10 16 N/A
6:53 am 06:53 Clear 9 -12.8 2 -16.7 73 73 NW 9 15 30.35 1028 10 16 N/A
7:53 am 07:53 Sunny 9 -12.8 2 -16.7 73 73 NNW 6 9 30.37 1029 10 16 N/A
8:53 am 08:53 Sunny 16 -8.9 6 -14.4 65 65 NNW 6 9 30.37 1028 10 16 N/A
9:53 am 09:53 Sunny 22 -5.6 9 -12.8 57 57 NNW 7 11 30.37 1028 10 16 N/A
10:53 am 10:53 Sunny 26 -3.3 12 -11.1 55 55 NW 8 13 30.33 1027 10 16 N/A
11:53 am 11:53 Sunny 30 -1.1 14 -10 51 51 W 15 24 30.30 1026 10 16 N/A
12:53 pm 12:53 Sunny 32 undefined 13 -10.6 45 45 WNW 16 26 30.25 1025 10 16 N/A
1:53 pm 13:53 Sunny 32 undefined 16 -8.9 52 52 WNW 12 19 30.24 1024 10 16 N/A
2:53 pm 14:53 Sunny 32 undefined 17 -8.3 54 54 W 14 22 30.24 1024 10 16 N/A
3:53 pm 15:53 Partly Cloudy 32 undefined 18 -7.8 56 56 WNW 12 19 30.27 1025 10 16 N/A
4:53 pm 16:53 Cloudy 31 -0.6 19 -7.2 61 61 W 12 19 30.27 1025 10 16 N/A
5:53 pm 17:53 Cloudy 31 -0.6 21 -6.1 67 67 W 16 26 30.28 1025 10 16 N/A
6:49 pm 18:49 Cloudy with Light Snow 28 -2 25 -4 86 86 WNW 16 26 30.27 1025 3 4 N/A
6:53 pm 18:53 Cloudy with Light Snow 29 -1.7 25 -3.9 85 85 WNW 15 24 30.30 1026 3 5 N/A
7:53 pm 19:53 Cloudy with Light Snow 29 -1.7 25 -3.9 85 85 WNW 14 22 30.31 1027 2 3 N/A
8:03 pm 20:03 Cloudy with Light Snow 28 -2 25 -4 86 86 WNW 15 24 30.27 1025 2 3 N/A
8:10 pm 20:10 Cloudy with Light Snow 28 -2 25 -4 86 86 WNW 12 19 30.27 1025 3 5 N/A
8:33 pm 20:33 Cloudy with Light Snow 28 -2.2 25 -3.9 88 88 WNW 12 19 30.27 1025 2 3 0.01 0.25
8:53 pm 20:53 Cloudy with Light Snow 29 -1.7 25 -3.9 85 85 WNW 16 26 30.29 1026 3 4 0.01 0.25
9:00 pm 21:00 Cloudy with Light Snow 28 -2 25 -4 86 86 WNW 14 22 30.27 1025 3 5 N/A
9:53 pm 21:53 Cloudy 30 -1.1 22 -5.6 72 72 W 13 20 30.27 1025 10 16 N/A
10:53 pm 22:53 Cloudy 30 -1.1 20 -6.7 66 66 WNW 10 17 30.25 1025 10 16 N/A
11:53 pm 23:53 Cloudy 30 -1.1 20 -6.7 66 66 WNW 13 20 30.24 1024 10 16 N/A

Powered by AerisWeather